Content
SEND FEEDBACK

Daily
Averages
Monthly
Summary
United States of America

FORT JONES, CALIFORNIA


Home > North America > United States > California
Elevation: 83 meters     Latitude: 41 36N     Longitude: 122 51W

WEATHER
 
SELECT A DAY
Number of Records: 240,756;   Date Range: 1/1/95 - 8/12/14
 
SHARE

PRINT THIS DATA

[ ← Previous Day ]
WEATHER ALMANAC - 5 FEBRUARY, 2013
[ Next Day → ]
[ °F ]   °C
Weather ElementAverageHighLow
Temperature3.9 °C10.6 °C (12:53 pm)-2.2 °C (11:53 pm)
Dewpoint-1.7 °C1.7 °C (1:53 pm)-5 °C (11:53 pm)
Humidity69.5 %89 % (5:53 am)43 % (12:53 pm)
Barometer1018.6 hPa1023 hPa (9:53 pm)1016.6 hPa (2:53 pm)
Wind Speed10.8 km/h29.6 km/h (3:53 pm)
Wind Gust42.6 km/h (3:53 pm)
Weather ElementAverage
Visibility16.1 km
Wind DirectionSSE (144.3 °)

Weather ElementTotal
Precipitation---
Heating Degree Days14.2 (Base 18.3)
Averaged from 21 records on 5 February, 2013
WEATHER CONDITIONS BREAKOUT
WIND DIRECTION BREAKOUT
WEATHER BY HOUR - 5 FEBRUARY, 2013
[ °F ]   °C
Local TimeTemperatureDewpointHumidityBarometerVisibilityWind DirectionWind SpeedGust SpeedPrecipitationEventsConditions
1:53 AM1.7 °C-1.1 °C82 %1017.3 hPa16.1 kmNNE (30°)9.3 km/hClear
2:53 AM3.3 °C-0.6 °C76 %1016.9 hPa16.1 kmENE (60°)14.8 km/hClear
3:53 AM2.2 °C-1.1 °C79 %1016.9 hPa16.1 kmCalmClear
4:53 AM0 °C-2.2 °C85 %1017.3 hPa16.1 kmENE (60°)9.3 km/hClear
5:53 AM-0.6 °C-2.2 °C89 %1017.3 hPa16.1 kmNorth (10°)7.4 km/hClear
6:53 AM0 °C-2.2 °C85 %1017.9 hPa16.1 kmNNE (30°)5.6 km/hClear
7:53 AM-1.1 °C-2.8 °C88 %1018.3 hPa16.1 kmNorth (360°)7.4 km/hClear
8:53 AM0.6 °C-1.7 °C85 %1019 hPa16.1 kmCalmClear
9:53 AM3.3 °C0 °C79 %1018.6 hPa16.1 kmWest (280°)9.3 km/hClear
10:53 AM7.8 °C0 °C58 %1017.9 hPa16.1 kmCalmScattered Clouds
11:53 AM10 °C-0.6 °C48 %1017.3 hPa16.1 kmENE (60°)11.1 km/hOvercast
12:53 PM10.6 °C-1.7 °C43 %1017.3 hPa16.1 kmNorth (350°)14.8 km/h0 mmOvercast
1:53 PM10.6 °C1.7 °C54 %1016.9 hPa16.1 kmNNW (330°)25.9 km/hOvercast
2:53 PM10 °C0.6 °C52 %1016.6 hPa16.1 kmWNW (300°)27.8 km/hClear
3:53 PM8.9 °C-0.6 °C52 %1017.6 hPa16.1 kmWNW (300°)29.6 km/h42.6 km/hClear
4:53 PM7.8 °C-2.2 °C50 %1018.6 hPa16.1 kmWNW (290°)18.5 km/h35.2 km/hClear
5:53 PM5.6 °C-2.2 °C58 %1019.6 hPa16.1 kmWNW (300°)24.1 km/hClear
6:53 PM5 °C-2.8 °C57 %1020.7 hPa16.1 kmWest (270°)11.1 km/hClear
8:53 PM-1.1 °C-4.4 °C79 %1022.4 hPa16.1 kmCalmMostly Cloudy
9:53 PM-1.1 °C-4.4 °C79 %1023 hPa16.1 kmCalmClear
11:53 PM-2.2 °C-5 °C81 %1022.7 hPa16.1 kmCalmClear
Hourly data recorded from KSIY, located 0 kilometers away from Fort Jones, California







STORIES FROM OUR PARTNERS